Terminal Aerodrome Forecast
Issued by NWS Denver/Boulder, CO

Home | Current Version | Previous Version | Text Only | Print | Product List | Glossary On
Versions: 1 2 3 4 5 6 7 8 9 10 11 12 13 14 15 16 17 18 19 20 21 22 23 24 25 26 27 28 29 30 31 32 33 34
000
FTUS45 KBOU 171422 AAA
TAFDEN
TAF AMD
KDEN 171422Z 1714/1818 20010KT P6SM FEW220
     FM172000 15008KT P6SM SCT220
     FM180200 22012KT P6SM SCT220
     FM181600 06008KT P6SM SCT220=

USA.gov is the U.S. government's official web portal to all federal, state and local government web resources and services.